Bass Lake Weather Center

Moon Phase Calendar



Bass Lake Water Level
Online Cameras

 


      

Current Conditions in Bass Lake
1/27/2022 5:21:26 AM

17°F
Feels Like 4
Clouds
Humidity
55%
Pressure
30.15"
Wind
16.1 mph (SSW)
Dew Point
5°F
UV Index
0/10 (Low)
Visibility
6 mi

Hourly Forecast

Date & Time Thu, Jan 27
5:00 AM
Thu, Jan 27
6:00 AM
Thu, Jan 27
7:00 AM
Thu, Jan 27
8:00 AM
Thu, Jan 27
9:00 AM
Thu, Jan 27
10:00 AM
Thu, Jan 27
11:00 AM
Thu, Jan 27
12:00 PM
Thu, Jan 27
1:00 PM
Thu, Jan 27
2:00 PM
Thu, Jan 27
3:00 PM
Thu, Jan 27
4:00 PM
Thu, Jan 27
5:00 PM
Thu, Jan 27
6:00 PM
Thu, Jan 27
7:00 PM
Thu, Jan 27
8:00 PM
Thu, Jan 27
9:00 PM
Thu, Jan 27
10:00 PM
Thu, Jan 27
11:00 PM
Fri, Jan 28
12:00 AM
Fri, Jan 28
1:00 AM
Fri, Jan 28
2:00 AM
Fri, Jan 28
3:00 AM
Fri, Jan 28
4:00 AM
Fri, Jan 28
5:00 AM
Fri, Jan 28
6:00 AM
Fri, Jan 28
7:00 AM
Fri, Jan 28
8:00 AM
Fri, Jan 28
9:00 AM
Fri, Jan 28
10:00 AM
Fri, Jan 28
11:00 AM
Fri, Jan 28
12:00 PM
Fri, Jan 28
1:00 PM
Fri, Jan 28
2:00 PM
Fri, Jan 28
3:00 PM
Fri, Jan 28
4:00 PM
Fri, Jan 28
5:00 PM
Fri, Jan 28
6:00 PM
Fri, Jan 28
7:00 PM
Fri, Jan 28
8:00 PM
Fri, Jan 28
9:00 PM
Fri, Jan 28
10:00 PM
Fri, Jan 28
11:00 PM
Sat, Jan 29
12:00 AM
Sat, Jan 29
1:00 AM
Sat, Jan 29
2:00 AM
Sat, Jan 29
3:00 AM
Sat, Jan 29
4:00 AM
Condition
Clouds

Clouds

Clouds

Clouds

Clouds

Clouds

Clouds

Clouds

Clouds

Clouds

Clouds

Clouds

Clouds

Clouds

Clouds

Clouds

Clouds

Clouds

Clouds

Clouds

Clouds

Snow

Clouds

Clouds

Clouds

Clouds

Clouds

Clouds

Clouds

Clouds

Clouds

Clouds

Clouds

Clouds

Clouds

Clouds

Clouds

Clouds

Clouds

Clouds

Clouds

Clouds

Clouds

Clouds

Clouds

Clouds

Clouds

Clouds
Temperature 17°F17°F17°F18°F21°F24°F26°F28°F29°F30°F30°F28°F26°F26°F26°F25°F23°F21°F20°F19°F18°F18°F18°F16°F15°F12°F10°F10°F13°F15°F17°F18°F19°F19°F18°F17°F14°F13°F13°F12°F11°F10°F9°F8°F7°F6°F5°F4°F
Feels Like 4°F4°F5°F6°F8°F11°F13°F16°F18°F19°F19°F18°F16°F16°F16°F16°F13°F11°F9°F8°F6°F8°F6°F5°F4°F1°F0°F2°F4°F7°F9°F10°F11°F10°F10°F11°F14°F13°F6°F3°F2°F1°F0°F0°F-2°F-3°F-3°F-3°F
Cloudiness 100%96%100%100%100%100%100%100%100%100%100%100%100%100%100%100%100%94%83%79%14%40%59%69%75%78%63%58%65%73%64%56%30%36%48%53%49%49%81%82%86%88%89%87%36%24%20%18%
Visibility 6 mi6 mi6 mi6 mi6 mi6 mi6 mi6 mi6 mi6 mi6 mi4 mi3 mi3 mi6 mi6 mi6 mi6 mi6 mi6 mi6 mi1 mi6 mi6 mi6 mi6 mi6 mi6 mi6 mi6 mi6 mi6 mi6 mi6 mi6 mi6 mi6 mi6 mi6 mi6 mi6 mi6 mi6 mi6 mi6 mi6 mi6 mi6 mi
Precipitation 0%0%0%0%0%0%0%0%0%0%0%0%4%6%23%15%17%16%16%20%41%45%46%38%27%13%2%2%1%1%1%1%0%0%0%0%0%0%7%7%7%7%7%4%0%0%0%0%
Humidity 55%58%63%72%76%77%81%86%86%84%85%89%92%90%89%88%92%93%91%89%91%95%90%87%88%91%93%91%82%76%72%70%70%71%74%82%89%92%93%94%94%93%93%94%93%93%93%94%
Dew Point 5°F6°F8°F12°F15°F18°F20°F24°F25°F26°F26°F25°F24°F23°F23°F22°F21°F19°F17°F16°F15°F16°F15°F12°F11°F8°F7°F7°F7°F8°F9°F9°F10°F10°F11°F12°F10°F10°F10°F10°F8°F7°F6°F5°F3°F2°F1°F0°F
Pressure 30.15"30.15"30.18"30.18"30.18"30.18"30.18"30.15"30.15"30.12"30.12"30.15"30.18"30.21"30.24"30.24"30.24"30.27"30.27"30.27"30.27"30.27"30.3"30.3"30.3"30.33"30.36"30.39"30.39"30.39"30.39"30.36"30.36"30.33"30.33"30.36"30.36"30.36"30.36"30.39"30.39"30.36"30.36"30.36"30.36"30.36"30.36"30.36"
Wind Speed 13.4 mph15 mph15.7 mph15.1 mph15.7 mph15.9 mph15.8 mph15.7 mph15 mph14.5 mph13.5 mph12.8 mph11 mph11.2 mph10.5 mph9 mph9.3 mph8.8 mph9.4 mph10.2 mph10.6 mph8.5 mph11.2 mph9 mph8.1 mph6.9 mph5.8 mph4.9 mph5.4 mph5.5 mph5.6 mph5.6 mph5.8 mph6.2 mph5.8 mph3.7 mph1.9 mph2.5 mph4 mph5.4 mph5.4 mph5 mph5 mph4.4 mph4.5 mph4.5 mph4.2 mph3.5 mph
Wind
Direction
203°
SSW
204°
SSW
208°
SSW
207°
SSW
213°
SSW
220°
SW
228°
SW
237°
WSW
242°
WSW
250°
WSW
260°
W
270°
W
278°
W
295°
WNW
299°
WNW
291°
WNW
295°
WNW
296°
WNW
299°
WNW
293°
WNW
295°
WNW
341°
NNW
35°
NE
29°
NNE
31°
NNE
32°
NNE
41°
NE
36°
NE
35°
NE
33°
NNE
20°
NNE

N
349°
N
336°
NNW
332°
NNW
328°
NNW
311°
NW
272°
W
258°
WSW
266°
W
271°
W
272°
W
268°
W
267°
W
267°
W
267°
W
268°
W
265°
W

Daily Forecast

Date High Low Precip. Humidity
Today
Jan 27

Clouds
30 °F
10 °F
23%
81%
Friday
Jan 28

Snow
19 °F
10 °F
46%
72%
Saturday
Jan 29

Clear
20 °F
4 °F
4%
66%
Sunday
Jan 30

Snow
29 °F
18 °F
20%
88%
Monday
Jan 31

Clouds
33 °F
20 °F
0%
79%
Tuesday
Feb 1

Rain
41 °F
29 °F
85%
91%
Wednesday
Feb 2

Snow
41 °F
31 °F
100%
98%
Thursday
Feb 3

Snow
29 °F
10 °F
100%
92%
Friday
Feb 4

Snow
12 °F
1 °F
37%
74%
Saturday
Feb 5

Snow
14 °F
7 °F
39%
85%
Sunday
Feb 6

Clouds
18 °F
4 °F
5%
76%
Monday
Feb 7

Snow
25 °F
13 °F
100%
74%
Tuesday
Feb 8

Snow
17 °F
-6 °F
100%
79%
Wednesday
Feb 9

Clouds
15 °F
-9 °F
0%
81%
Thursday
Feb 10

Snow
22 °F
3 °F
39%
79%
Friday
Feb 11

Snow
15 °F
-2 °F
39%
88%

Temperature 8-14 Day Outlook



Precipitation 8-14 Day Outlook




Quick Links
Bass Lake News
Bass Lake Photos
Bass Lake Videos




About Us
Contact Us
Site Map
Search Site
Advertise With Us
   
Bass.USLakes.info
THE BASS LAKE WEBSITE

Copyright 2022, Lakes Online
Privacy    |    Legal